Hourly Weather Almaly

Today, 2 March, Tuesday

Time Temperature Precipitation Wind Pressure Humidity
00:00 -18°C° 0 mm 2 mps 768 mmHg 92%
01:00 -18°C° 0 mm 2 mps 768 mmHg 92%
02:00 -18°C° 0 mm 2 mps 768 mmHg 91%
03:00 -18°C° 0 mm 2 mps 769 mmHg 91%
04:00 -18°C° 0 mm 2 mps 768 mmHg 92%
05:00 -18°C° 0 mm 2 mps 768 mmHg 92%
06:00 -19°C° 0 mm 3 mps 768 mmHg 92%
07:00 -16°C° 0 mm 3 mps 768 mmHg 90%
08:00 -15°C° 0 mm 4 mps 768 mmHg 88%
09:00 -12°C° 0 mm 4 mps 767 mmHg 86%
10:00 -12°C° 0 mm 5 mps 767 mmHg 85%
11:00 -10°C° 0 mm 6 mps 766 mmHg 83%
12:00 -8°C° 0 mm 6 mps 765 mmHg 81%
13:00 -6°C° 0 mm 6 mps 765 mmHg 81%
14:00 -6°C° 0 mm 6 mps 764 mmHg 81%
15:00 -6°C° 0 mm 7 mps 764 mmHg 81%
16:00 -6°C° 0 mm 6 mps 763 mmHg 81%
17:00 -8°C° 0 mm 6 mps 762 mmHg 81%
18:00 -8°C° 0 mm 6 mps 762 mmHg 82%
19:00 -8°C° 0 mm 6 mps 761 mmHg 81%
20:00 -7°C° 0 mm 7 mps 761 mmHg 81%
21:00 -7°C° 0 mm 7 mps 761 mmHg 80%
22:00 -6°C° 0 mm 8 mps 760 mmHg 84%
23:00 -6°C° 0 mm 8 mps 759 mmHg 88%

Tomorrow, 3 March, Wednesday

Time Temperature Precipitation Wind Pressure Humidity
00:00 -5°C° 0 mm 9 mps 758 mmHg 91%
01:00 -5°C° 0.2 mm 9 mps 758 mmHg 93%
02:00 -5°C° 0.2 mm 9 mps 757 mmHg 94%
03:00 -5°C° 0.2 mm 9 mps 757 mmHg 96%
04:00 -5°C° 0.4 mm 9 mps 756 mmHg 96%
05:00 -4°C° 0.4 mm 8 mps 756 mmHg 97%
06:00 -4°C° 0.4 mm 8 mps 755 mmHg 97%
07:00 -4°C° 0.2 mm 8 mps 755 mmHg 98%
08:00 -4°C° 0.2 mm 8 mps 755 mmHg 98%
09:00 -4°C° 0.2 mm 8 mps 755 mmHg 98%
10:00 -4°C° 0.1 mm 8 mps 755 mmHg 99%
11:00 -4°C° 0.1 mm 8 mps 755 mmHg 99%
12:00 -3°C° 0.1 mm 7 mps 754 mmHg 99%
13:00 -3°C° 0.3 mm 7 mps 754 mmHg 99%
14:00 -3°C° 0.3 mm 7 mps 754 mmHg 98%
15:00 -3°C° 0.3 mm 6 mps 754 mmHg 98%
16:00 -3°C° 0.4 mm 6 mps 754 mmHg 97%
17:00 -3°C° 0.4 mm 6 mps 755 mmHg 97%
18:00 -2°C° 0.4 mm 5 mps 755 mmHg 97%
19:00 -4°C° 0.1 mm 6 mps 756 mmHg 95%
20:00 -6°C° 0.1 mm 7 mps 756 mmHg 93%
21:00 -6°C° 0.1 mm 7 mps 757 mmHg 90%
22:00 -8°C° 0 mm 6 mps 757 mmHg 91%
23:00 -10°C° 0 mm 6 mps 758 mmHg 92%

Day after tomorrow, 4 March, Thursday

Time Temperature Precipitation Wind Pressure Humidity
00:00 -11°C° 0 mm 5 mps 758 mmHg 92%
01:00 -12°C° 0 mm 5 mps 759 mmHg 93%
02:00 -13°C° 0 mm 5 mps 759 mmHg 93%
03:00 -13°C° 0 mm 5 mps 760 mmHg 93%
04:00 -14°C° 0 mm 5 mps 760 mmHg 94%
05:00 -14°C° 0 mm 5 mps 761 mmHg 94%
06:00 -15°C° 0 mm 4 mps 761 mmHg 94%
07:00 -13°C° 0 mm 5 mps 762 mmHg 92%
08:00 -12°C° 0 mm 5 mps 762 mmHg 90%
09:00 -10°C° 0 mm 6 mps 763 mmHg 88%
10:00 -9°C° 0 mm 6 mps 763 mmHg 87%
11:00 -7°C° 0 mm 7 mps 763 mmHg 85%
12:00 -6°C° 0 mm 7 mps 763 mmHg 83%
13:00 -4°C° 0 mm 7 mps 763 mmHg 82%
14:00 -4°C° 0 mm 7 mps 763 mmHg 81%
15:00 -3°C° 0 mm 7 mps 762 mmHg 80%
16:00 -4°C° 0 mm 7 mps 762 mmHg 80%
17:00 -5°C° 0 mm 6 mps 762 mmHg 80%
18:00 -6°C° 0 mm 6 mps 762 mmHg 79%
19:00 -5°C° 0 mm 6 mps 762 mmHg 78%
20:00 -6°C° 0 mm 7 mps 762 mmHg 76%
21:00 -6°C° 0 mm 8 mps 762 mmHg 74%
22:00 -6°C° 0 mm 8 mps 762 mmHg 75%
23:00 -6°C° 0 mm 8 mps 762 mmHg 76%

5 March, Friday

Time Temperature Precipitation Wind Pressure Humidity
00:00 -6°C° 0 mm 8 mps 761 mmHg 77%
01:00 -6°C° 0 mm 8 mps 761 mmHg 77%
02:00 -6°C° 0 mm 9 mps 761 mmHg 78%
03:00 -6°C° 0 mm 9 mps 761 mmHg 79%
04:00 -6°C° 0 mm 9 mps 761 mmHg 80%
05:00 -6°C° 0 mm 9 mps 761 mmHg 81%
06:00 -6°C° 0 mm 9 mps 761 mmHg 82%
07:00 -5°C° 0 mm 9 mps 761 mmHg 82%
08:00 -4°C° 0 mm 9 mps 761 mmHg 82%
09:00 -3°C° 0 mm 10 mps 761 mmHg 83%
10:00 -3°C° 0 mm 10 mps 761 mmHg 86%
11:00 -3°C° 0 mm 9 mps 761 mmHg 89%
12:00 -1°C° 0 mm 9 mps 761 mmHg 92%
13:00 -1°C° 0 mm 8 mps 760 mmHg 92%
14:00 -1°C° 0 mm 7 mps 760 mmHg 92%
15:00 -1°C° 0 mm 6 mps 760 mmHg 92%
16:00 -1°C° 0 mm 6 mps 760 mmHg 90%
17:00 -1°C° 0 mm 6 mps 760 mmHg 89%
18:00 0°C° 0 mm 5 mps 761 mmHg 87%
19:00 0°C° 0 mm 5 mps 761 mmHg 89%
20:00 0°C° 0 mm 5 mps 761 mmHg 90%
21:00 -1°C° 0 mm 5 mps 761 mmHg 91%
22:00 -1°C° 0 mm 5 mps 761 mmHg 92%
23:00 -1°C° 0 mm 5 mps 761 mmHg 93%

6 March, Saturday

Time Temperature Precipitation Wind Pressure Humidity
00:00 0°C° 0 mm 5 mps 761 mmHg 93%
01:00 -1°C° 0 mm 4 mps 761 mmHg 93%
02:00 -1°C° 0 mm 4 mps 761 mmHg 92%
03:00 -2°C° 0 mm 4 mps 761 mmHg 91%
04:00 -1°C° 0 mm 4 mps 761 mmHg 89%
05:00 -1°C° 0 mm 5 mps 761 mmHg 87%
06:00 -1°C° 0 mm 5 mps 760 mmHg 85%
07:00 -2°C° 0 mm 6 mps 760 mmHg 87%
08:00 -2°C° 0 mm 6 mps 760 mmHg 89%
09:00 -1°C° 0 mm 7 mps 760 mmHg 91%
10:00 -1°C° 0 mm 7 mps 759 mmHg 89%
11:00 0°C° 0 mm 7 mps 759 mmHg 88%
12:00 +1°C° 0 mm 8 mps 758 mmHg 87%
13:00 +2°C° 0 mm 7 mps 758 mmHg 81%
14:00 +3°C° 0 mm 7 mps 757 mmHg 76%
15:00 +3°C° 0 mm 7 mps 757 mmHg 71%
16:00 +3°C° 0 mm 7 mps 757 mmHg 71%
17:00 +2°C° 0 mm 6 mps 756 mmHg 70%
18:00 +1°C° 0 mm 5 mps 756 mmHg 70%
19:00 +1°C° 0 mm 5 mps 756 mmHg 76%
20:00 0°C° 0 mm 4 mps 756 mmHg 82%
21:00 0°C° 0 mm 4 mps 757 mmHg 87%
22:00 -1°C° 0.3 mm 4 mps 757 mmHg 90%
23:00 -2°C° 0.3 mm 5 mps 757 mmHg 93%

7 March, Sunday

Time Temperature Precipitation Wind Pressure Humidity
00:00 -4°C° 0.3 mm 5 mps 757 mmHg 95%
01:00 -5°C° 0.1 mm 5 mps 757 mmHg 93%
02:00 -6°C° 0.1 mm 5 mps 757 mmHg 91%
03:00 -7°C° 0.1 mm 5 mps 757 mmHg 89%
04:00 -7°C° 0.2 mm 5 mps 757 mmHg 90%
05:00 -7°C° 0.2 mm 5 mps 757 mmHg 91%
06:00 -8°C° 0.2 mm 5 mps 758 mmHg 92%
07:00 -8°C° 0.5 mm 4 mps 758 mmHg 92%
08:00 -8°C° 0.5 mm 4 mps 758 mmHg 92%
09:00 -8°C° 0.5 mm 4 mps 759 mmHg 92%
10:00 -8°C° 0.1 mm 5 mps 759 mmHg 88%
11:00 -7°C° 0.1 mm 5 mps 759 mmHg 84%
12:00 -7°C° 0.1 mm 5 mps 760 mmHg 79%
13:00 -7°C° 0 mm 5 mps 760 mmHg 78%
14:00 -7°C° 0 mm 5 mps 760 mmHg 76%
15:00 -7°C° 0 mm 5 mps 760 mmHg 75%
16:00 -7°C° 0 mm 4 mps 761 mmHg 77%
17:00 -7°C° 0 mm 3 mps 761 mmHg 79%
18:00 -7°C° 0 mm 2 mps 761 mmHg 82%
19:00 -7°C° 0 mm 2 mps 761 mmHg 80%
20:00 -7°C° 0 mm 2 mps 761 mmHg 79%
21:00 -8°C° 0 mm 3 mps 761 mmHg 78%
22:00 -9°C° 0 mm 4 mps 761 mmHg 76%
23:00 -8°C° 0 mm 5 mps 761 mmHg 75%
Show more